• In Austria
  • List of Countries
  • For 7 days
  • Water Temperature
  • Satellite Maps
  • Weather Map
  • News
  • Weather Widgets
  • user-avatar
    Login

    Hourly Weather Kranevo

    Today, 25 February, Sunday

    Time Temperature Precipitation Wind Pressure Humidity
    00:00 -5°C° 0.1 mm 8 mps 754 mmHg 89%
    01:00 -6°C° 0.1 mm 8 mps 755 mmHg 88%
    02:00 -6°C° 0.1 mm 8 mps 755 mmHg 87%
    03:00 -7°C° 0 mm 8 mps 755 mmHg 85%
    04:00 -8°C° 0 mm 8 mps 756 mmHg 84%
    05:00 -8°C° 0 mm 8 mps 756 mmHg 82%
    06:00 -8°C° 0 mm 8 mps 756 mmHg 81%
    07:00 -8°C° 0 mm 8 mps 756 mmHg 79%
    08:00 -10°C° 0 mm 8 mps 757 mmHg 78%
    09:00 -8°C° 0 mm 7 mps 757 mmHg 75%
    10:00 -7°C° 0 mm 7 mps 757 mmHg 73%
    11:00 -6°C° 0 mm 7 mps 757 mmHg 70%
    12:00 -4°C° 0 mm 6 mps 757 mmHg 70%
    13:00 -4°C° 0 mm 6 mps 757 mmHg 69%
    14:00 -3°C° 0 mm 6 mps 757 mmHg 69%
    15:00 -3°C° 0 mm 6 mps 757 mmHg 71%
    16:00 -4°C° 0 mm 6 mps 758 mmHg 72%
    17:00 -4°C° 0 mm 6 mps 758 mmHg 74%
    18:00 -4°C° 0 mm 6 mps 758 mmHg 75%
    19:00 -4°C° 0 mm 6 mps 758 mmHg 76%
    20:00 -6°C° 0 mm 7 mps 758 mmHg 77%
    21:00 -6°C° 0 mm 7 mps 758 mmHg 78%
    22:00 -6°C° 0 mm 7 mps 758 mmHg 79%
    23:00 -6°C° 0 mm 7 mps 758 mmHg 80%

    Tomorrow, 26 February, Monday

    Time Temperature Precipitation Wind Pressure Humidity
    00:00 -6°C° 0.2 mm 8 mps 758 mmHg 81%
    01:00 -6°C° 0.2 mm 8 mps 758 mmHg 83%
    02:00 -8°C° 0.2 mm 9 mps 758 mmHg 84%
    03:00 -8°C° 0.4 mm 9 mps 757 mmHg 85%
    04:00 -8°C° 0.4 mm 9 mps 757 mmHg 86%
    05:00 -8°C° 0.4 mm 10 mps 757 mmHg 86%
    06:00 -8°C° 0.5 mm 10 mps 756 mmHg 87%
    07:00 -7°C° 0.5 mm 10 mps 756 mmHg 88%
    08:00 -7°C° 0.5 mm 11 mps 756 mmHg 89%
    09:00 -7°C° 0.7 mm 11 mps 756 mmHg 89%
    10:00 -7°C° 0.7 mm 11 mps 756 mmHg 89%
    11:00 -7°C° 0.7 mm 12 mps 755 mmHg 90%
    12:00 -7°C° 0.9 mm 12 mps 755 mmHg 90%
    13:00 -7°C° 0.9 mm 13 mps 754 mmHg 90%
    14:00 -6°C° 0.9 mm 13 mps 753 mmHg 91%
    15:00 -6°C° 0.8 mm 13 mps 753 mmHg 91%
    16:00 -6°C° 0.8 mm 13 mps 752 mmHg 91%
    17:00 -8°C° 0.8 mm 14 mps 751 mmHg 91%
    18:00 -6°C° 1.2 mm 14 mps 751 mmHg 91%
    19:00 -6°C° 1.2 mm 14 mps 750 mmHg 91%
    20:00 -6°C° 1.2 mm 14 mps 750 mmHg 91%
    21:00 -6°C° 1.9 mm 14 mps 750 mmHg 92%
    22:00 -8°C° 1.9 mm 14 mps 749 mmHg 93%
    23:00 -7°C° 1.9 mm 13 mps 749 mmHg 93%

    Day after tomorrow, 27 February, Tuesday

    Time Temperature Precipitation Wind Pressure Humidity
    00:00 -7°C° 1.3 mm 13 mps 749 mmHg 93%
    01:00 -7°C° 1.3 mm 13 mps 749 mmHg 92%
    02:00 -9°C° 1.3 mm 13 mps 749 mmHg 92%
    03:00 -9°C° 0.5 mm 14 mps 748 mmHg 92%
    04:00 -10°C° 0.5 mm 14 mps 748 mmHg 91%
    05:00 -10°C° 0.5 mm 14 mps 748 mmHg 91%
    06:00 -11°C° 0.5 mm 13 mps 749 mmHg 91%
    07:00 -12°C° 0.5 mm 12 mps 749 mmHg 92%
    08:00 -12°C° 0.5 mm 11 mps 750 mmHg 92%
    09:00 -13°C° 0.4 mm 11 mps 751 mmHg 92%
    10:00 -13°C° 0.4 mm 10 mps 752 mmHg 92%
    11:00 -12°C° 0.4 mm 9 mps 752 mmHg 93%
    12:00 -12°C° 0.1 mm 8 mps 753 mmHg 92%
    13:00 -11°C° 0.1 mm 8 mps 754 mmHg 91%
    14:00 -11°C° 0.1 mm 7 mps 754 mmHg 91%
    15:00 -10°C° 0 mm 6 mps 755 mmHg 91%
    16:00 -10°C° 0 mm 6 mps 755 mmHg 90%
    17:00 -10°C° 0 mm 5 mps 756 mmHg 90%
    18:00 -11°C° 0 mm 5 mps 756 mmHg 91%
    19:00 -11°C° 0 mm 4 mps 757 mmHg 92%
    20:00 -14°C° 0 mm 4 mps 757 mmHg 93%
    21:00 -14°C° 0 mm 4 mps 758 mmHg 93%
    22:00 -14°C° 0 mm 4 mps 758 mmHg 93%
    23:00 -14°C° 0 mm 4 mps 758 mmHg 93%

    28 February, Wednesday

    Time Temperature Precipitation Wind Pressure Humidity
    00:00 -13°C° 0 mm 3 mps 758 mmHg 94%
    01:00 -14°C° 0 mm 3 mps 759 mmHg 94%
    02:00 -15°C° 0 mm 3 mps 759 mmHg 94%
    03:00 -15°C° 0 mm 3 mps 759 mmHg 93%
    04:00 -15°C° 0 mm 3 mps 759 mmHg 93%
    05:00 -16°C° 0 mm 3 mps 759 mmHg 93%
    06:00 -16°C° 0 mm 4 mps 759 mmHg 92%
    07:00 -15°C° 0 mm 4 mps 759 mmHg 91%
    08:00 -14°C° 0 mm 4 mps 759 mmHg 90%
    09:00 -13°C° 0.4 mm 5 mps 759 mmHg 91%
    10:00 -12°C° 0.4 mm 5 mps 759 mmHg 92%
    11:00 -11°C° 0.4 mm 6 mps 759 mmHg 93%
    12:00 -12°C° 0.7 mm 7 mps 758 mmHg 93%
    13:00 -11°C° 0.7 mm 7 mps 757 mmHg 94%
    14:00 -11°C° 0.7 mm 8 mps 756 mmHg 94%
    15:00 -11°C° 0.9 mm 8 mps 756 mmHg 94%
    16:00 -11°C° 0.9 mm 8 mps 756 mmHg 94%
    17:00 -11°C° 0.9 mm 8 mps 756 mmHg 94%
    18:00 -11°C° 0.9 mm 9 mps 757 mmHg 94%
    19:00 -12°C° 0.9 mm 9 mps 757 mmHg 94%
    20:00 -12°C° 0.9 mm 9 mps 758 mmHg 94%
    21:00 -12°C° 0.4 mm 9 mps 758 mmHg 94%
    22:00 -12°C° 0.4 mm 9 mps 759 mmHg 94%
    23:00 -12°C° 0.4 mm 9 mps 759 mmHg 93%

    1 March, Thursday

    Time Temperature Precipitation Wind Pressure Humidity
    00:00 -14°C° 0.2 mm 9 mps 760 mmHg 93%
    01:00 -13°C° 0.2 mm 8 mps 760 mmHg 93%
    02:00 -13°C° 0.2 mm 8 mps 760 mmHg 93%
    03:00 -14°C° 0.1 mm 7 mps 761 mmHg 93%
    04:00 -15°C° 0.1 mm 7 mps 761 mmHg 93%
    05:00 -16°C° 0.1 mm 6 mps 762 mmHg 93%
    06:00 -16°C° 0 mm 6 mps 762 mmHg 93%
    07:00 -15°C° 0 mm 5 mps 762 mmHg 93%
    08:00 -15°C° 0 mm 5 mps 762 mmHg 93%
    09:00 -12°C° 0 mm 4 mps 762 mmHg 92%
    10:00 -11°C° 0 mm 4 mps 762 mmHg 90%
    11:00 -8°C° 0 mm 3 mps 762 mmHg 89%
    12:00 -7°C° 0 mm 3 mps 762 mmHg 87%
    13:00 -6°C° 0 mm 3 mps 761 mmHg 86%
    14:00 -5°C° 0 mm 3 mps 761 mmHg 84%
    15:00 -4°C° 0 mm 2 mps 761 mmHg 85%
    16:00 -4°C° 0 mm 2 mps 761 mmHg 85%
    17:00 -4°C° 0 mm 2 mps 760 mmHg 86%
    18:00 -6°C° 0 mm 2 mps 761 mmHg 86%
    19:00 -7°C° 0 mm 2 mps 761 mmHg 86%
    20:00 -8°C° 0 mm 2 mps 761 mmHg 86%
    21:00 -8°C° 0 mm 2 mps 761 mmHg 85%
    22:00 -8°C° 0 mm 2 mps 761 mmHg 84%
    23:00 -8°C° 0 mm 2 mps 761 mmHg 84%

    2 March, Friday

    Time Temperature Precipitation Wind Pressure Humidity
    00:00 -9°C° 0 mm 2 mps 760 mmHg 84%
    01:00 -9°C° 0 mm 2 mps 760 mmHg 84%
    02:00 -9°C° 0 mm 2 mps 760 mmHg 84%
    03:00 -9°C° 0 mm 2 mps 759 mmHg 84%
    04:00 -9°C° 0 mm 2 mps 759 mmHg 83%
    05:00 -8°C° 0 mm 1 mps 759 mmHg 83%
    06:00 -7°C° 0 mm 1 mps 759 mmHg 85%
    07:00 -7°C° 0 mm 1 mps 759 mmHg 86%
    08:00 -6°C° 0 mm 1 mps 759 mmHg 87%
    09:00 -3°C° 0 mm 1 mps 759 mmHg 88%
    10:00 -2°C° 0 mm 1 mps 758 mmHg 89%
    11:00 0°C° 0 mm 1 mps 758 mmHg 91%
    12:00 0°C° 0 mm 1 mps 758 mmHg 93%
    13:00 +1°C° 0 mm 1 mps 757 mmHg 96%
    14:00 +2°C° 0 mm 1 mps 757 mmHg 98%
    15:00 +2°C° 0 mm 1 mps 757 mmHg 96%
    16:00 +2°C° 0 mm 1 mps 756 mmHg 95%
    17:00 +1°C° 0 mm 2 mps 756 mmHg 93%
    18:00 -1°C° 0 mm 2 mps 756 mmHg 92%
    19:00 -1°C° 0 mm 2 mps 756 mmHg 92%
    20:00 -1°C° 0 mm 2 mps 756 mmHg 91%
    21:00 -1°C° 0 mm 2 mps 756 mmHg 91%
    22:00 -1°C° 0 mm 2 mps 756 mmHg 92%
    23:00 -1°C° 0 mm 2 mps 756 mmHg 92%
    Show more